Tracking 20943 objects as of 16-Jul-2020
HD Live streaming from Space Station
objects crossing your sky now

COSMOS 2209

Track COSMOS 2209 now!
COSMOS 2209 is classified as:


NORAD ID: 22112
Int'l Code: 1992-059A
Perigee: 35,721.5 km
Apogee: 35,808.6 km
Inclination: 14.9 °
Period: 1,434.6 minutes
Semi major axis: 42136 km
RCS: 5.0119 m2 (large)
Launch date: September 10, 1992
Source: Commonwealth of Independent States (former USSR) (CIS)
Launch site: TYURATAM MISSILE AND SPACE COMPLEX (TTMTR)
aabbcc
Your satellite tracking list
Your tracking list is empty




NASA's NSSDC Master Catalog

Two Line Element Set (TLE):
1 22112U 92059A   20197.39120858 -.00000260 +00000-0 +00000-0 0  9997
2 22112 014.9027 000.0061 0010343 305.0366 049.9855 01.00374266101926
Source of the keplerian elements: AFSPC